ONEWEB-0340 (49206 NORAD) Tracking and Keplerian Element Data

This shows tracking and keplerian element data for the satellite.

Feedback or suggestion? Click here.




ElementValue
Catalog49206
NameONEWEB-0340
Epoch Orbit360
Epoch Day287.91667824
Epoch Year2021
RAAN317.9409
Inclination87.4934
Eccentricity0.0018038
Argument of Perigee193.3711
Mean Anonmoly265.7802
Mean Motion14.91011238
Decay Rate-0.01349296
L11 49206U 21083W 21287.91667824 -.01349296 00000-0 -14820+0 0 9998
L22 49206 87.4934 317.9409 0018038 193.3711 265.7802 14.91011238 3605

Live tracking and technical data element details for ONEWEB-0340 (NORAD 49206). ONEWEB-0340 can be tracked NOW for your location showing map with azimuth and elevation plus other details from your city location.

Track the satellite on the map from your city or location and see movement details for azimuth, elevation, latitude, longitude, range, height, and movement on the map or in text.







IsCatalogInMostPopularTable: catalog: 49206, numindb: 8
Update: records affected: 1



GetName: 49206 ONEWEB-0340

Hit Count: updated at: Tue, 19 Oct 2021 08:06:52 GMT